Location: *
(48.4333°N, 5.0333°W)
Time: 02:58:41
(UTC+00:00)

Cosmos 1605 Rocket - Pass Details

Date: 09 April 2020
Orbit: 946 x 1005 km, 82.9° (Epoch: 02 June)

Event Time Altitude Azimuth Distance (km) Brightness Sun altitude
Rises 22:20:45 0° 353° (N) 3,643 8.0 -27.6°
Reaches altitude 10° 22:23:17 10° 357° (N) 2,699 7.0 -27.8°
Enters shadow 22:29:21 62° 75° (ENE) 1,085 4.0 -28.4°
